Regional Weather Roundup
Issued by NWS Upton, NY

Current Version | Previous Version | Graphics & Text | Print | Product List | Glossary Off
Versions: 1 2 3 4 5 6 7 8 9 10 11 12 13 14 15 16 17 18 19 20 21 22 23 24 25 26 27 28 29 30 31 32 33 34 35 36 37 38 39 40 41 42 43 44 45 46 47 48 49 50

000
ASUS41 KOKX 271218
RWROKX

REGIONAL WEATHER ROUNDUP
NATIONAL WEATHER SERVICE NEW YORK NY
800 AM EDT MON JUL 27 2015

NOTE: "FAIR" INDICATES FEW OR NO CLOUDS BELOW 12,000 FEET WITH NO
SIGNIFICANT WEATHER AND/OR OBSTRUCTIONS TO VISIBILITY.

NYZ071-072-176-178-NJZ106-104-271300-
NEW YORK CITY METRO AREA


CITY           SKY/WX    TMP DP  RH WIND       PRES   REMARKS
CENTRAL PARK   CLOUDY    73  68  84 VRB3      30.04S
LAGUARDIA APRT CLOUDY    76  64  66 SW9       30.00F
KENNEDY INTL   CLOUDY    75  66  73 SW5       30.02R
NEWARK/LIBERTY CLOUDY    74  67  78 VRB5      30.01S
BRNX BOT. GARD   N/A     73  66  78 CALM      30.01F
TETERBORO      CLOUDY    78  64  61 S7        30.00R
$$

NYZ177-179-078>081-271300-
LONG ISLAND NEW YORK

CITY           SKY/WX    TMP DP  RH WIND       PRES   REMARKS
FARMINGDALE    CLOUDY    75  68  78 W3        30.03R
ISLIP          CLOUDY    75  67  76 W5        30.01R
SHIRLEY        CLOUDY    76  71  85 SW6       30.03R
WESTHAMPTON    CLOUDY    75  72  90 SW8       30.04R
MONTAUK POINT    N/A     75  72  90 VRB5      30.03S
$$

NYZ052-065-067-271300-
HUDSON VALLEY

CITY           SKY/WX    TMP DP  RH WIND       PRES   REMARKS
WHITE PLAINS   CLOUDY    72  68  87 S3        30.02R
NEWBURGH       PTSUNNY   70  68  94 CALM      30.04R
MONTGOMERY     NOT AVBL
POUGHKEEPSIE   CLOUDY    71  67  87 CALM      30.01R
ALBANY         PTSUNNY   72  65  78 CALM      30.02R
$$

NJZ001-105-106-008-010-013-015-019>022-104-271300-
NEW JERSEY

CITY           SKY/WX    TMP DP  RH WIND       PRES   REMARKS
NEWARK/LIBERTY CLOUDY    74  67  78 VRB5      30.01S
TETERBORO      CLOUDY    78  64  61 S7        30.00R
CALDWELL       CLOUDY    72  67  84 CALM      30.02R
MORRISTOWN     PTSUNNY   75  72  88 W3        30.02R
SOMERVILLE     CLOUDY    71  68  90 CALM      30.00R
SUSSEX         PTSUNNY   69  66  90 CALM      30.03R
ANDOVER          N/A     70  68  93 CALM      30.03R
TRENTON        CLOUDY    71  67  87 CALM      30.01R
MILLVILLE      CLOUDY    73  71  93 CALM      30.02R
ATLANTIC CITY  LGT RAIN  71  70  96 SE5       30.02R FOG
WRIGHTSTOWN    CLOUDY    72  72 100 CALM      30.00R
TOMS RIVER     CLOUDY    70  68  94 CALM      30.01S
BELMAR         CLOUDY    70  63  78 E3        30.02R
$$

PAZ047>061-062-071-271300-
EASTERN PENNSYLVANIA

CITY           SKY/WX    TMP DP  RH WIND       PRES   REMARKS
PHILADELPHIA   PTSUNNY   74  69  85 S3        30.01R
ALLENTOWN      PTSUNNY   73  68  83 SE3       30.03R
SCRANTON       CLOUDY    69  64  84 MISG      30.03R
$$

CTZ002-004>006-009-010-012-RIZ004-006-007-MAZ004-011-015-271300-
SOUTHERN NEW ENGLAND
 IN CT

CITY           SKY/WX    TMP DP  RH WIND       PRES   REMARKS
BRADLEY INTL   CLOUDY    70  64  81 CALM      30.01R
HARTFORD       CLOUDY    73  65  75 S5        30.01R
DANBURY        CLOUDY    72  64  76 CALM      30.03S
WTRBRY/OXFORD  SUNNY     72  63  73 SW6       30.05R
BRIDGEPORT     LGT RAIN  72  68  87 S9        30.02R
MERIDEN        CLOUDY    72  66  81 S5        30.02R
NEW HAVEN      LGT RAIN  71  68  90 VRB5      30.03R
CHESTER        LGT RAIN  70  68  94 CALM      30.05R
GROTON         LGT RAIN  72  66  81 W7        30.02R
WILLIMANTIC    CLOUDY    71  66  84 CALM      30.03R

 IN RI

CITY           SKY/WX    TMP DP  RH WIND       PRES   REMARKS
PROVIDENCE     CLOUDY    70  67  90 SW3       30.03S
BLOCK ISLAND   CLOUDY    73  72  94 S8        30.04S
WESTERLY       CLOUDY    72  70  93 S5        30.03S

 IN MA

CITY           SKY/WX    TMP DP  RH WIND       PRES   REMARKS
BOSTON         PTSUNNY   73  67  81 SW10      30.02R
WORCESTER      PTSUNNY   67  64  90 SW6       30.05R
WESTFIELD      CLOUDY    69  65  86 CALM      30.02R
PROVINCETOWN   PTSUNNY   72  64  78 S7        30.04R
NANTUCKET      CLOUDY    71  67  87 S10       30.05R
$$

ANZ330-335-338-340-345-350-353-355-271300-
COASTAL MARINE OBSERVATIONS


STATION/POSITION TIME  SKY/WX   TEMP    WIND        PRES    VSBY  WAVE
                                AIR SEA DIR/SP/G                  HT/PER
                 (UTC)          (F)     (DEG/KT/KT) (MB)    (MI)  (FT/S)
NY HARB ENTRANCE 1150            74 74  230/  6/  8 1016.1          2/11
4S FIRE IS       NOT AVBL
20S FIRE ISLAND  1150            73 73  290/  4/  4 1016.4          2/11
GREAT SOUTH BAY  1100            75 78  230/ 12/ 14   N/A
23SW MTP         1150            74 73  220/  4/  6 1016.5          3/ 5
HUDSON CANYON    NOT AVBL
KINGS POINT      1100            74 69  260/  5/  5 1015.4
CENTRAL LI SOUND NOT AVBL
EASTERN LI SOUND 1100            71 68  200/  6/  8   N/A
ROBBINS REEF     1100            73     260/  4/  5 1015.1
$$


>>>>>>>>>>>>>>>>>>>>>>>>>>>> KEY <<<<<<<<<<<<<<<<<<<<<<<<<<<
>                                                          <
>     SKY/WX - SKY CONDITION/PRESENT WEATHER               <
>     TMP    - TEMPERATURE IN FAHRENHEIT                   <
>     DP     - DEWPOINT IN FAHRENHEIT                      <
>     RH     - RELATIVE HUMIDITY IN PERCENT                <
>     WIND   - DIRECTION AND SPEED IN MPH                  <
>     PRES   - MEAN SEA LEVEL PRESSURE IN INCHES OF HG     <
>     WCI    - WIND CHILL INDEX                            <
>     VSB    - VISIBILITY IN MILES                         <
>     HX     - HEAT INDEX                                  <
>     TC     - TEMPERATURE IN CELSIUS                      <
>     VRB    - VARIABLE WIND DIRECTION                     <
>                                                          <
>>>>>>>>>>>>>>>>>>>>>>>>>>>> KEY <<<<<<<<<<<<<<<<<<<<<<<<<<<




USA.gov is the U.S. government's official web portal to all federal, state and local government web resources and services.